Simultaneous Nadir Overpasses (SNOs) Predictions

Prediction of SNOs between AQUA and GOES-15 Satellite Orbit:

Table of predicted SNOs for the next 14.0 days since TLE Epoch: 1/1/2016
Index Date Time (AQUA) AQUA Lat,Lon GOES-15 Lat,Lon Distance(km) Time Diff (sec)
1 01/02/2016 22:16:42 0.94,-130.44 0.08,-134.46 458.03 80
2 01/03/2016 10:37:58 0.13,-135.60 -0.09,-134.47 127.87 80
3 01/05/2016 10:25:45 -0.44,-132.62 -0.08,-134.37 197.69 80
4 01/05/2016 22:47:08 -0.65,-137.82 0.09,-134.30 399.50 80
5 01/07/2016 22:34:56 -0.06,-134.85 0.08,-134.19 74.65 80
6 01/09/2016 22:22:43 0.54,-131.88 0.08,-134.07 249.44 80
7 01/10/2016 10:43:58 0.52,-137.04 -0.08,-134.08 336.16 80
8 01/12/2016 10:31:44 -0.03,-134.06 -0.08,-133.95 13.12 80
9 01/14/2016 10:19:31 -0.66,-131.09 -0.08,-133.82 309.90 80
10 01/14/2016 22:40:54 -0.46,-136.28 0.09,-133.74 288.53 80




NCC Satellite Simultaneous Nadir Overpasses (SNOs) Prediction Service
